Regional Weather Roundup
Issued by NWS

Home | Current Version | Previous Version | Graphics & Text | Print | Product List | Glossary Off
Versions: 1 2 3 4 5 6 7 8 9 10 11 12 13 14 15 16 17 18 19 20 21 22 23 24 25 26 27 28 29 30 31 32 33 34 35 36 37 38 39 40 41 42 43 44 45 46 47 48 49 50

000
ASUS43 KBIS 240510
RWRND

NORTH DAKOTA REGIONAL WEATHER ROUNDUP
NATIONAL WEATHER SERVICE BISMARCK ND
1200 AM CDT WED AUG 24 2016

NOTE: "FAIR" INDICATES FEW OR NO CLOUDS BELOW 12,000 FEET WITH NO
SIGNIFICANT WEATHER AND/OR OBSTRUCTIONS TO VISIBILITY.


NDZ001>003-009>011-017-240600-
NORTHWEST NORTH DAKOTA

CITY           SKY/WX    TMP DP  RH WIND       PRES   REMARKS
WILLISTON      CLEAR     63  48  58 W12       29.92R
MINOT          CLEAR     65  45  48 SW7       29.85R
MINOT AFB      CLEAR     59  46  61 SW9       29.84R
$$

NDZ018>021-031>035-040>046-240600-
SOUTHWEST NORTH DAKOTA

CITY           SKY/WX    TMP DP  RH WIND       PRES   REMARKS
BISMARCK       CLEAR     55  47  74 CALM      29.91R
DICKINSON      CLEAR     52  39  61 W8        29.97R
GARRISON         N/A     57  46  66 W8        29.90R
HETTINGER ARPT CLEAR     49  40  71 NW6       30.02R
$$

NDZ004>008-012>016-024-026-027-054-240600-
NORTHEAST NORTH DAKOTA

CITY           SKY/WX    TMP DP  RH WIND       PRES   REMARKS
GRAND FORKS    CLOUDY    68  57  68 NW10      29.77R
GRND FRKS AFB  CLOUDY    65  57  76 W8        29.79R
DEVILS LAKE    CLEAR     61  54  77 W8        29.82S
$$

NDZ022-023-025-028>030-036>039-047>053-240600-
SOUTHEAST NORTH DAKOTA

CITY           SKY/WX    TMP DP  RH WIND       PRES   REMARKS
FARGO          CLOUDY    76  61  59 NW14      29.78R
JAMESTOWN      PTCLDY    58  52  80 NW3       29.86R
$$





USA.gov is the U.S. government's official web portal to all federal, state and local government web resources and services.